Previsão horária em Abay

Hoje, 24 Janeiro, Domingo

Tempo Temperatura Precipitação Vento Pressão Humidade
00:00 -7°C° 0 mm 3 m/s 729 mmHg 66%
01:00 -7°C° 0 mm 3 m/s 729 mmHg 66%
02:00 -7°C° 0 mm 3 m/s 729 mmHg 65%
03:00 -7°C° 0 mm 3 m/s 729 mmHg 72%
04:00 -6°C° 0 mm 2 m/s 729 mmHg 73%
05:00 -6°C° 0 mm 2 m/s 729 mmHg 75%
06:00 -6°C° 0 mm 2 m/s 730 mmHg 77%
07:00 -6°C° 0 mm 1 m/s 730 mmHg 78%
08:00 -6°C° 0 mm 1 m/s 730 mmHg 80%
09:00 -4°C° 0 mm 1 m/s 730 mmHg 77%
10:00 -3°C° 0 mm 1 m/s 730 mmHg 73%
11:00 -1°C° 0 mm 1 m/s 730 mmHg 70%
12:00 -3°C° 0 mm 2 m/s 730 mmHg 71%
13:00 -2°C° 0 mm 2 m/s 729 mmHg 71%
14:00 -2°C° 0 mm 2 m/s 729 mmHg 72%
15:00 -3°C° 0 mm 2 m/s 729 mmHg 76%
16:00 -4°C° 0 mm 2 m/s 729 mmHg 80%
17:00 -5°C° 0 mm 2 m/s 728 mmHg 85%
18:00 -5°C° 0 mm 2 m/s 728 mmHg 84%
19:00 -6°C° 0 mm 2 m/s 728 mmHg 84%
20:00 -6°C° 0 mm 1 m/s 728 mmHg 83%
21:00 -6°C° 0 mm 1 m/s 728 mmHg 83%
22:00 -6°C° 0 mm 1 m/s 728 mmHg 83%
23:00 -7°C° 0 mm 1 m/s 728 mmHg 83%

Amanhã, 25 Janeiro, Segunda-feira

Tempo Temperatura Precipitação Vento Pressão Humidade
00:00 -7°C° 0 mm 1 m/s 727 mmHg 84%
01:00 -7°C° 0 mm 1 m/s 727 mmHg 85%
02:00 -8°C° 0 mm 1 m/s 727 mmHg 86%
03:00 -8°C° 0 mm 1 m/s 727 mmHg 87%
04:00 -8°C° 0 mm 1 m/s 726 mmHg 88%
05:00 -9°C° 0 mm 1 m/s 726 mmHg 89%
06:00 -9°C° 0 mm 1 m/s 726 mmHg 89%
07:00 -9°C° 0 mm 1 m/s 726 mmHg 89%
08:00 -9°C° 0 mm 1 m/s 726 mmHg 90%
09:00 -8°C° 0 mm 1 m/s 726 mmHg 86%
10:00 -7°C° 0 mm 1 m/s 726 mmHg 82%
11:00 -4°C° 0 mm 1 m/s 726 mmHg 79%
12:00 -4°C° 0 mm 1 m/s 726 mmHg 78%
13:00 -5°C° 0 mm 2 m/s 726 mmHg 77%
14:00 -4°C° 0 mm 2 m/s 726 mmHg 76%
15:00 -5°C° 0 mm 2 m/s 726 mmHg 80%
16:00 -5°C° 0 mm 2 m/s 726 mmHg 85%
17:00 -6°C° 0 mm 2 m/s 726 mmHg 89%
18:00 -6°C° 0 mm 2 m/s 726 mmHg 90%
19:00 -6°C° 0 mm 1 m/s 726 mmHg 91%
20:00 -7°C° 0 mm 1 m/s 726 mmHg 93%
21:00 -7°C° 0 mm 1 m/s 726 mmHg 93%
22:00 -8°C° 0 mm 1 m/s 726 mmHg 93%
23:00 -8°C° 0 mm 1 m/s 726 mmHg 93%

Depois de amanhã, 26 Janeiro, Terça-feira

Tempo Temperatura Precipitação Vento Pressão Humidade
00:00 -8°C° 0 mm 1 m/s 726 mmHg 93%
01:00 -8°C° 0 mm 1 m/s 725 mmHg 93%
02:00 -9°C° 0 mm 0 m/s 725 mmHg 93%
03:00 -9°C° 0 mm 0 m/s 725 mmHg 92%
04:00 -9°C° 0 mm 0 m/s 725 mmHg 92%
05:00 -9°C° 0 mm 0 m/s 725 mmHg 91%
06:00 -9°C° 0 mm 0 m/s 725 mmHg 91%
07:00 -9°C° 0 mm 0 m/s 725 mmHg 91%
08:00 -9°C° 0 mm 0 m/s 726 mmHg 90%
09:00 -8°C° 0 mm 0 m/s 726 mmHg 86%
10:00 -7°C° 0 mm 1 m/s 726 mmHg 83%
11:00 -6°C° 0 mm 1 m/s 726 mmHg 79%
12:00 -4°C° 0 mm 1 m/s 725 mmHg 77%
13:00 -3°C° 0 mm 1 m/s 725 mmHg 75%
14:00 -4°C° 0 mm 2 m/s 725 mmHg 73%
15:00 -5°C° 0 mm 2 m/s 725 mmHg 77%
16:00 -6°C° 0 mm 2 m/s 725 mmHg 81%
17:00 -7°C° 0 mm 2 m/s 725 mmHg 85%
18:00 -6°C° 0 mm 1 m/s 725 mmHg 87%
19:00 -7°C° 0 mm 1 m/s 725 mmHg 89%
20:00 -8°C° 0 mm 1 m/s 725 mmHg 91%
21:00 -8°C° 0 mm 1 m/s 725 mmHg 91%
22:00 -8°C° 0 mm 1 m/s 725 mmHg 90%
23:00 -8°C° 0 mm 0 m/s 725 mmHg 90%

27 Janeiro, Quarta-feira

Tempo Temperatura Precipitação Vento Pressão Humidade
00:00 -8°C° 0 mm 0 m/s 725 mmHg 89%
01:00 -9°C° 0 mm 0 m/s 725 mmHg 89%
02:00 -9°C° 0 mm 0 m/s 725 mmHg 88%
03:00 -9°C° 0 mm 0 m/s 725 mmHg 88%
04:00 -9°C° 0 mm 0 m/s 725 mmHg 88%
05:00 -9°C° 0 mm 0 m/s 725 mmHg 88%
06:00 -9°C° 0 mm 0 m/s 725 mmHg 87%
07:00 -9°C° 0 mm 0 m/s 725 mmHg 87%
08:00 -9°C° 0 mm 0 m/s 725 mmHg 87%
09:00 -8°C° 0 mm 1 m/s 725 mmHg 82%
10:00 -7°C° 0 mm 1 m/s 725 mmHg 77%
11:00 -4°C° 0 mm 1 m/s 725 mmHg 73%
12:00 -4°C° 0 mm 1 m/s 725 mmHg 71%
13:00 -3°C° 0 mm 1 m/s 725 mmHg 69%
14:00 -4°C° 0 mm 2 m/s 724 mmHg 67%
15:00 -3°C° 0 mm 1 m/s 725 mmHg 72%
16:00 -4°C° 0 mm 1 m/s 725 mmHg 77%
17:00 -6°C° 0 mm 1 m/s 725 mmHg 82%
18:00 -6°C° 0 mm 1 m/s 725 mmHg 84%
19:00 -7°C° 0 mm 1 m/s 725 mmHg 86%
20:00 -7°C° 0 mm 1 m/s 725 mmHg 88%
21:00 -8°C° 0 mm 1 m/s 725 mmHg 88%
22:00 -8°C° 0 mm 1 m/s 725 mmHg 88%
23:00 -8°C° 0 mm 1 m/s 725 mmHg 87%

28 Janeiro, Quinta-feira

Tempo Temperatura Precipitação Vento Pressão Humidade
00:00 -8°C° 0 mm 0 m/s 725 mmHg 87%
01:00 -9°C° 0 mm 0 m/s 725 mmHg 87%
02:00 -9°C° 0 mm 0 m/s 725 mmHg 86%
03:00 -9°C° 0 mm 0 m/s 725 mmHg 86%
04:00 -9°C° 0 mm 0 m/s 725 mmHg 85%
05:00 -9°C° 0 mm 0 m/s 724 mmHg 84%
06:00 -9°C° 0 mm 1 m/s 724 mmHg 83%
07:00 -9°C° 0 mm 1 m/s 724 mmHg 82%
08:00 -9°C° 0 mm 1 m/s 724 mmHg 81%
09:00 -8°C° 0 mm 1 m/s 724 mmHg 76%
10:00 -6°C° 0 mm 1 m/s 724 mmHg 70%
11:00 -4°C° 0 mm 1 m/s 724 mmHg 65%
12:00 -3°C° 0 mm 1 m/s 724 mmHg 65%
13:00 -4°C° 0 mm 2 m/s 724 mmHg 65%
14:00 -3°C° 0 mm 2 m/s 723 mmHg 64%
15:00 -4°C° 0 mm 2 m/s 723 mmHg 72%
16:00 -5°C° 0 mm 2 m/s 723 mmHg 79%
17:00 -6°C° 0 mm 2 m/s 723 mmHg 86%
18:00 -6°C° 0 mm 1 m/s 723 mmHg 86%
19:00 -6°C° 0 mm 1 m/s 723 mmHg 87%
20:00 -7°C° 0 mm 1 m/s 723 mmHg 87%
21:00 -7°C° 0 mm 1 m/s 722 mmHg 86%
22:00 -7°C° 0 mm 1 m/s 722 mmHg 85%
23:00 -8°C° 0 mm 1 m/s 722 mmHg 84%

29 Janeiro, Sexta-feira

Tempo Temperatura Precipitação Vento Pressão Humidade
Mostrar mais

Necessitamos do seu Consentimento

A Meteoprog e os seus Fornecedores de Serviços podem armazenar e aceder a dados pessoais como cookies, identificadores do dispositivo ou outras tecnologias semelhantes existentes no seu dispositivo e processar estes dados para personalizar conteúdos e anúncios, assim como funcionalidades nas redes sociais e análise de tráfego.

  • Armazenar e/ou aceder a informações no seu dispositivo

    Os cookies, identificadores do dispositivo ou outras informações podem ser armazenados ou acedidos no seu dispositivo, para os fins acima indicados.

  • Anúncios e conteúdos personalizados, medição de anúncios e conteúdos, dados sobre o público-alvo e desenvolvimento de produtos

    Os anúncios e os conteúdos podem ser personalizados com base num perfil. Podem ser adicionados dados adicionais para uma maior personalização dos anúncios e dos conteúdos. A eficácia dos anúncios e dos conteúdos pode ser medida. Podem ser obtidas informações sobre o público que visualizou os anúncios e os conteúdos. Estes dados podem ser usados para desenvolver ou melhorar sistemas, softwares ou a experiência do utilizador.

Ao clicar em "Eu concordo”, permitirá o uso de cookies, identificadores do dispositivo e web beacons mencionados ou outras tecnologias semelhantes. As configurações do navegador do seu dispositivo podem ser alteradas.

Para certos fins, podem ser invocados interesses legítimos ao invés de consentimento. Pode ler mais informação sobre este assunto na nossa Política de Privacidade e Cookies.